This demonstration page uses our WeatherBlox Daily Observations layout. Learn more.

Hourly Observations for December 11, 2018

Temp ( °F °C ) Dew Point ( °F °C ) Humidity (%) Winds ( mph kmh ) Pressure ( in mb ) Visibility ( mi km ) Precip ( " mm )
12:15 am 00:15 Clear 27 -3 25 -4 93 93 Calm 30.24 1024 10 16.09344 0 0
12:30 am 00:30 Clear 27 -3 25 -4 93 93 NNW 3 6 30.24 1024 10 16.09344 0 0
12:55 am 00:55 Clear 27 -3 25 -4 93 93 Calm 30.24 1024 10 16.09344 0 0
1:15 am 01:15 Clear 25 -4 23 -5 93 93 Calm 30.21 1023 10 16.09344 0 0
1:35 am 01:35 Clear 25 -4 23 -5 93 93 Calm 30.21 1023 10 16.09344 0 0
1:55 am 01:55 Clear 25 -4 23 -5 93 93 Calm 30.24 1024 10 16.09344 0 0
2:15 am 02:15 Clear 23 -5 23 -5 100 100 Calm 30.24 1024 7 11.265408 0 0
2:35 am 02:35 Clear 23 -5 23 -5 100 100 Calm 30.24 1024 7 11.265408 0 0
2:55 am 02:55 Clear 23 -5 23 -5 100 100 Calm 30.24 1024 7 11.265408 0 0
3:15 am 03:15 Clear 23 -5 23 -5 100 100 WNW 3 6 30.24 1024 7 11.265408 0 0
3:35 am 03:35 Clear 23 -5 23 -5 100 100 WNW 3 6 30.24 1024 7 11.265408 0 0
3:55 am 03:55 Clear 21 -6 21 -6 100 100 NW 3 6 30.21 1023 7 11.265408 0 0
4:15 am 04:15 Clear 23 -5 23 -5 100 100 NW 3 6 30.21 1023 7 11.265408 0 0
4:35 am 04:35 Clear 21 -6 21 -6 100 100 NNW 3 6 30.21 1023 7 11.265408 0 0
4:55 am 04:55 Clear 23 -5 23 -5 100 100 NNW 5 7 30.21 1023 7 11.265408 0 0
5:15 am 05:15 Clear 21 -6 21 -6 100 100 Calm 30.21 1023 7 11.265408 0 0
5:35 am 05:35 Clear 21 -6 21 -6 100 100 Calm 30.21 1023 7 11.265408 0 0
5:55 am 05:55 Clear 21 -6 21 -6 100 100 Calm 30.21 1023 7 11.265408 0 0
6:15 am 06:15 Clear 21 -6 21 -6 100 100 Calm 30.21 1023 7 11.265408 0 0
6:35 am 06:35 Clear 21 -6 21 -6 100 100 Calm 30.21 1023 7 11.265408 0 0
6:55 am 06:55 Clear 21 -6 21 -6 100 100 Calm 30.21 1023 7 11.265408 0 0
7:15 am 07:15 Clear 21 -6 21 -6 100 100 Calm 30.21 1023 7 11.265408 0 0
7:35 am 07:35 Sunny with Mist and Fog 21 -6 21 -6 100 100 Calm 30.21 1023 5 8.04672 0 0
7:55 am 07:55 Sunny with Mist and Fog 21 -6 21 -6 100 100 Calm 30.21 1023 5 8.04672 0 0
8:15 am 08:15 Sunny with Mist and Fog 23 -5 23 -5 100 100 WNW 3 6 30.21 1023 5 8.04672 0 0
8:35 am 08:35 Sunny with Mist and Fog 27 -3 27 -3 100 100 Calm 30.21 1023 5 8.04672 0 0
8:55 am 08:55 Sunny 28 -2 27 -3 93 93 Calm 30.21 1023 7 11.265408 0 0
9:15 am 09:15 Sunny 30 -1 27 -3 86 86 Calm 30.21 1023 10 16.09344 0 0
9:35 am 09:35 Sunny 32 0 28 -2 87 87 Calm 30.21 1023 10 16.09344 0 0
9:55 am 09:55 Sunny 34 1 28 -2 81 81 Calm 30.21 1023 10 16.09344 0 0
10:15 am 10:15 Sunny 36 2 27 -3 70 70 Calm 30.21 1023 10 16.09344 0 0
10:35 am 10:35 Sunny 36 2 28 -2 75 75 Calm 30.21 1023 10 16.09344 0 0
10:55 am 10:55 Sunny 37 3 27 -3 65 65 Calm 30.18 1022 10 16.09344 0 0
11:15 am 11:15 Sunny 37 3 27 -3 65 65 Calm 30.18 1022 10 16.09344 0 0
11:35 am 11:35 Sunny 39 4 27 -3 61 61 Calm 30.15 1021 10 16.09344 0 0
11:55 am 11:55 Sunny 41 5 25 -4 53 53 Calm 30.15 1021 10 16.09344 0 0
12:15 pm 12:15 Sunny 41 5 25 -4 53 53 Calm 30.15 1021 10 16.09344 0 0
12:35 pm 12:35 Sunny 41 5 23 -5 49 49 NW 3 6 30.12 1020 10 16.09344 0 0
12:55 pm 12:55 Sunny 43 6 23 -5 46 46 WNW 5 7 30.12 1020 10 16.09344 0 0
1:15 pm 13:15 Sunny 43 6 23 -5 46 46 W 8 13 30.09 1019 10 16.09344 0 0
1:35 pm 13:35 Sunny 43 6 23 -5 46 46 WSW 5 7 30.09 1019 10 16.09344 0 0
1:55 pm 13:55 Sunny 45 7 23 -5 42 42 WNW 6 9 30.06 1018 10 16.09344 0 0
2:15 pm 14:15 Sunny 45 7 23 -5 42 42 W 6 9 30.06 1018 10 16.09344 0 0
2:35 pm 14:35 Sunny 45 7 23 -5 42 42 Calm 30.06 1018 10 16.09344 0 0
2:55 pm 14:55 Sunny 45 7 23 -5 42 42 WNW 5 7 30.06 1018 10 16.09344 0 0
3:15 pm 15:15 Sunny 45 7 23 -5 42 42 WSW 6 9 30.06 1018 10 16.09344 0 0
3:35 pm 15:35 Sunny 45 7 23 -5 42 42 SW 5 7 30.06 1018 10 16.09344 0 0
3:55 pm 15:55 Sunny 45 7 23 -5 42 42 SSW 3 6 30.06 1018 10 16.09344 0 0
4:15 pm 16:15 Sunny 45 7 23 -5 42 42 SSW 3 6 30.06 1018 10 16.09344 0 0
4:35 pm 16:35 Sunny 43 6 23 -5 46 46 SSW 3 6 30.06 1018 10 16.09344 0 0
4:55 pm 16:55 Clear 41 5 25 -4 53 53 S 7 11 30.06 1018 10 16.09344 0 0
5:15 pm 17:15 Clear 39 4 27 -3 61 61 SSW 7 11 30.06 1018 10 16.09344 0 0
5:35 pm 17:35 Clear 37 3 27 -3 65 65 SSW 7 11 30.06 1018 10 16.09344 0 0
5:55 pm 17:55 Clear 36 2 27 -3 70 70 SSW 7 11 30.06 1018 10 16.09344 0 0
6:15 pm 18:15 Clear 36 2 27 -3 70 70 SW 6 9 30.06 1018 10 16.09344 0 0
6:35 pm 18:35 Clear 36 2 27 -3 70 70 SW 6 9 30.06 1018 10 16.09344 0 0
6:55 pm 18:55 Clear 34 1 27 -3 75 75 SW 6 9 30.06 1018 10 16.09344 0 0
7:15 pm 19:15 Clear 32 0 27 -3 80 80 W 5 7 30.06 1018 10 16.09344 0 0
7:35 pm 19:35 Clear 32 0 27 -3 80 80 W 3 6 30.06 1018 10 16.09344 0 0
7:55 pm 19:55 Clear 32 0 27 -3 80 80 W 3 6 30.06 1018 10 16.09344 0 0
8:15 pm 20:15 Clear 32 0 27 -3 80 80 W 5 7 30.06 1018 10 16.09344 0 0
8:35 pm 20:35 Clear 36 2 25 -4 65 65 Calm 30.06 1018 10 16.09344 0 0
8:55 pm 20:55 Clear 36 2 23 -5 60 60 Calm 30.09 1019 10 16.09344 0 0
9:15 pm 21:15 Clear 37 3 21 -6 52 52 NNW 3 6 30.09 1019 10 16.09344 0 0
9:35 pm 21:35 Clear 39 4 21 -6 48 48 N 5 7 30.09 1019 10 16.09344 0 0
9:55 pm 21:55 Clear 37 3 21 -6 52 52 NNW 7 11 30.09 1019 10 16.09344 0 0
10:15 pm 22:15 Clear 37 3 21 -6 52 52 NNW 8 13 30.09 1019 10 16.09344 0 0
10:35 pm 22:35 Clear 37 3 21 -6 52 52 NNW 7 11 30.09 1019 10 16.09344 0 0
10:55 pm 22:55 Clear 37 3 21 -6 52 52 N 3 6 30.09 1019 10 16.09344 0 0
11:15 pm 23:15 Clear 36 2 21 -6 56 56 Calm 30.09 1019 10 16.09344 0 0
11:30 pm 23:30 Partly Cloudy 36 2 21 -6 56 56 Calm 30.09 1019 10 16.09344 0 0
11:55 pm 23:55 Mostly Cloudy 36 2 21 -6 56 56 ESE 3 6 30.09 1019 10 16.09344 0 0

Powered by AerisWeather